| time (UTC) | temp F | wind direction | speed MPH | gust MPH | rain 1hr in | rain 24hr in | rain mn in | humidity % | barometer mb |
| 20260902040001 | 60 | 46 | 0.0 | 0.0 | 0.00 | 0.00 | 0.00 | 68 | 932.5 |
| 20260902035456 | 61 | 70 | 2.0 | 3.0 | 0.00 | 0.00 | 0.00 | 67 | 932.4 |
| 20260902034957 | 61 | 2 | 0.0 | 2.0 | 0.00 | 0.00 | 0.00 | 66 | 932.1 |
| 20260902034457 | 61 | 350 | 0.0 | 5.0 | 0.00 | 0.00 | 0.00 | 67 | 932.1 |
| 20260902033956 | 61 | 31 | 0.0 | 3.0 | 0.00 | 0.00 | 0.00 | 66 | 932.3 |
| 20260902033455 | 61 | 105 | 0.0 | 0.0 | 0.00 | 0.00 | 0.00 | 67 | 932.3 |
| 20260902032954 | 61 | 15 | 1.0 | 2.0 | 0.00 | 0.00 | 0.00 | 67 | 931.9 |
| 20260902032449 | 60 | 7 | 0.0 | 0.0 | 0.00 | 0.00 | 0.00 | 69 | 931.6 |
| 20260902031944 | 60 | 21 | 0.0 | 0.0 | 0.00 | 0.00 | 0.00 | 69 | 931.1 |
| 20260902031439 | 60 | 45 | 0.0 | 0.0 | 0.00 | 0.00 | 0.00 | 69 | 931.0 |
| 20260902030936 | 61 | 61 | 0.0 | 0.0 | 0.00 | 0.00 | 0.00 | 69 | 931.0 |
| 20260902030430 | 61 | 57 | 0.0 | 0.0 | 0.00 | 0.00 | 0.00 | 68 | 930.9 |
| 20260902025929 | 62 | 45 | 0.0 | 0.0 | 0.00 | 0.00 | 0.00 | 67 | 930.7 |
| 20260902025425 | 61 | 48 | 0.0 | 0.0 | 0.00 | 0.00 | 0.00 | 67 | 930.8 |
| 20260902024920 | 61 | 53 | 0.0 | 0.0 | 0.00 | 0.00 | 0.00 | 67 | 931.0 |
| 20260902024415 | 61 | 92 | 0.0 | 0.0 | 0.00 | 0.00 | 0.00 | 67 | 931.8 |
| 20260902023910 | 62 | 42 | 0.0 | 0.0 | 0.00 | 0.00 | 0.00 | 67 | 931.9 |
| 20260902023406 | 62 | 39 | 0.0 | 3.0 | 0.00 | 0.00 | 0.00 | 66 | 932.0 |
| 20260902022905 | 62 | 117 | 0.0 | 5.0 | 0.00 | 0.00 | 0.00 | 66 | 932.1 |
| 20260902022400 | 62 | 90 | 3.0 | 6.0 | 0.00 | 0.00 | 0.00 | 65 | 931.9 |
| 20260902021857 | 63 | 117 | 3.0 | 5.0 | 0.00 | 0.00 | 0.00 | 65 | 931.8 |
| 20260902021356 | 63 | 93 | 0.0 | 0.0 | 0.00 | 0.00 | 0.00 | 63 | 931.9 |
| 20260902020852 | 64 | 92 | 1.0 | 1.0 | 0.00 | 0.00 | 0.00 | 62 | 931.8 |
| 20260902020348 | 64 | 75 | 0.0 | 0.0 | 0.00 | 0.00 | 0.00 | 62 | 931.7 |
| 20260902015843 | 65 | 48 | 0.0 | 3.0 | 0.00 | 0.00 | 0.00 | 60 | 931.7 |
| 20260902015338 | 67 | 83 | 0.0 | 2.0 | 0.00 | 0.00 | 0.00 | 56 | 931.8 |
| 20260902014834 | 68 | 93 | 1.0 | 10.0 | 0.00 | 0.00 | 0.00 | 53 | 931.8 |
| 20260902014331 | 68 | 131 | 4.0 | 9.0 | 0.00 | 0.00 | 0.00 | 52 | 931.8 |
| 20260902013829 | 69 | 146 | 2.0 | 8.0 | 0.00 | 0.00 | 0.00 | 52 | 932.0 |
| 20260902013325 | 69 | 198 | 6.0 | 9.0 | 0.00 | 0.00 | 0.00 | 52 | 932.0 |
| 20260902012820 | 69 | 156 | 2.0 | 7.0 | 0.00 | 0.00 | 0.00 | 51 | 932.0 |
| 20260902012316 | 70 | 46 | 5.0 | 9.0 | 0.00 | 0.00 | 0.00 | 50 | 931.8 |
| 20260902011811 | 71 | 150 | 5.0 | 10.0 | 0.00 | 0.00 | 0.00 | 48 | 931.8 |
| 20260902011306 | 73 | 300 | 4.0 | 9.0 | 0.00 | 0.00 | 0.00 | 40 | 932.0 |
| 20260902010805 | 73 | 263 | 4.0 | 7.0 | 0.00 | 0.00 | 0.00 | 39 | 932.1 |
| 20260902010301 | 73 | 218 | 5.0 | 10.0 | 0.00 | 0.00 | 0.00 | 38 | 932.0 |
| 20260902005759 | 73 | 230 | 6.0 | 14.0 | 0.00 | 0.00 | 0.00 | 38 | 932.3 |
| 20260902005255 | 73 | 289 | 2.0 | 5.0 | 0.00 | 0.00 | 0.00 | 37 | 932.5 |
| 20260902004755 | 74 | 219 | 4.0 | 9.0 | 0.00 | 0.00 | 0.00 | 38 | 932.4 |
| 20260902004250 | 74 | 215 | 4.0 | 9.0 | 0.00 | 0.00 | 0.00 | 36 | 932.3 |
| 20260902003744 | 74 | 154 | 5.0 | 9.0 | 0.00 | 0.00 | 0.00 | 38 | 932.4 |
| 20260902003240 | 74 | 223 | 5.0 | 10.0 | 0.00 | 0.00 | 0.00 | 37 | 932.3 |
| 20260902002736 | 74 | 196 | 5.0 | 7.0 | 0.00 | 0.00 | 0.00 | 37 | 932.3 |
| 20260902002235 | 74 | 222 | 5.0 | 10.0 | 0.00 | 0.00 | 0.00 | 36 | 932.4 |
| 20260902001731 | 75 | 166 | 7.0 | 11.0 | 0.00 | 0.00 | 0.00 | 36 | 932.6 |
| 20260902001231 | 75 | 286 | 3.0 | 5.0 | 0.00 | 0.00 | 0.00 | 36 | 932.7 |
| 20260902000726 | 75 | 247 | 4.0 | 8.0 | 0.00 | 0.00 | 0.00 | 36 | 932.6 |
| 20260902000221 | 75 | 238 | 6.0 | 10.0 | 0.00 | 0.00 | 0.00 | 37 | 932.9 |
| 20260901235721 | 75 | 233 | 3.0 | 3.0 | 0.00 | 0.00 | 0.00 | 38 | 933.1 |
| 20260901235216 | 75 | 281 | 6.0 | 11.0 | 0.00 | 0.00 | 0.00 | 37 | 932.8 |
| 20260901234715 | 76 | 192 | 6.0 | 11.0 | 0.00 | 0.00 | 0.00 | 36 | 933.1 |
| 20260901234210 | 76 | 244 | 6.0 | 13.0 | 0.00 | 0.00 | 0.00 | 36 | 932.9 |
| 20260901233710 | 75 | 221 | 8.0 | 15.0 | 0.00 | 0.00 | 0.00 | 35 | 933.1 |
| 20260901233206 | 76 | 271 | 9.0 | 15.0 | 0.00 | 0.00 | 0.00 | 34 | 932.8 |
| 20260901232701 | 76 | 188 | 8.0 | 17.0 | 0.00 | 0.00 | 0.00 | 34 | 932.9 |
| 20260901232156 | 77 | 248 | 7.0 | 10.0 | 0.00 | 0.00 | 0.00 | 34 | 932.8 |
| 20260901231653 | 77 | 296 | 3.0 | 13.0 | 0.00 | 0.00 | 0.00 | 34 | 932.8 |
| 20260901231148 | 76 | 230 | 7.0 | 13.0 | 0.00 | 0.00 | 0.00 | 33 | 932.7 |
| 20260901230639 | 75 | 210 | 4.0 | 13.0 | 0.00 | 0.00 | 0.00 | 35 | 932.8 |
| 20260901230139 | 76 | 121 | 7.0 | 13.0 | 0.00 | 0.00 | 0.00 | 35 | 932.5 |
| 20260901225633 | 75 | 136 | 2.0 | 11.0 | 0.00 | 0.00 | 0.00 | 36 | 932.8 |
| 20260901225128 | 77 | 225 | 7.0 | 11.0 | 0.00 | 0.00 | 0.00 | 35 | 932.7 |
| 20260901224624 | 77 | 215 | 7.0 | 11.0 | 0.00 | 0.00 | 0.00 | 35 | 932.7 |
| 20260901224120 | 77 | 236 | 6.0 | 9.0 | 0.00 | 0.00 | 0.00 | 35 | 932.8 |
| 20260901223615 | 75 | 186 | 5.0 | 8.0 | 0.00 | 0.00 | 0.00 | 36 | 933.1 |
| 20260901223110 | 75 | 197 | 8.0 | 17.0 | 0.00 | 0.00 | 0.00 | 36 | 933.1 |
| 20260901222607 | 75 | 182 | 6.0 | 13.0 | 0.00 | 0.00 | 0.00 | 37 | 933.2 |
| 20260901222102 | 76 | 182 | 4.0 | 8.0 | 0.00 | 0.00 | 0.00 | 36 | 933.3 |
| 20260901221558 | 76 | 226 | 7.0 | 10.0 | 0.00 | 0.00 | 0.00 | 38 | 933.5 |
| 20260901221054 | 75 | 252 | 5.0 | 10.0 | 0.00 | 0.00 | 0.00 | 40 | 933.6 |
| 20260901220553 | 76 | 247 | 9.0 | 10.0 | 0.00 | 0.00 | 0.00 | 39 | 933.6 |
| 20260901220052 | 76 | 237 | 5.0 | 11.0 | 0.00 | 0.00 | 0.00 | 39 | 933.5 |
| 20260901215550 | 76 | 210 | 10.0 | 14.0 | 0.00 | 0.00 | 0.00 | 39 | 933.6 |
| 20260901215045 | 75 | 264 | 6.0 | 10.0 | 0.00 | 0.00 | 0.00 | 42 | 933.6 |
| 20260901214543 | 75 | 250 | 8.0 | 9.0 | 0.00 | 0.00 | 0.00 | 41 | 933.6 |
| 20260901214037 | 76 | 269 | 7.0 | 10.0 | 0.00 | 0.00 | 0.00 | 41 | 933.7 |
| 20260901213531 | 74 | 271 | 5.0 | 9.0 | 0.00 | 0.00 | 0.00 | 42 | 933.9 |
| 20260901213031 | 73 | 257 | 5.0 | 13.0 | 0.00 | 0.00 | 0.00 | 43 | 933.9 |
| 20260901212531 | 75 | 315 | 6.0 | 8.0 | 0.00 | 0.00 | 0.00 | 42 | 934.0 |
| 20260901212028 | 74 | 308 | 9.0 | 14.0 | 0.00 | 0.00 | 0.00 | 43 | 933.9 |
| 20260901211523 | 72 | 238 | 8.0 | 10.0 | 0.00 | 0.00 | 0.00 | 44 | 933.9 |
| 20260901211019 | 72 | 294 | 5.0 | 10.0 | 0.00 | 0.00 | 0.00 | 44 | 934.1 |
| 20260901210515 | 73 | 245 | 5.0 | 11.0 | 0.00 | 0.00 | 0.00 | 44 | 934.1 |
| 20260901210011 | 74 | 221 | 6.0 | 8.0 | 0.00 | 0.00 | 0.00 | 41 | 934.2 |
| 20260901205506 | 73 | 216 | 6.0 | 10.0 | 0.00 | 0.00 | 0.00 | 44 | 934.2 |
| 20260901205000 | 75 | 260 | 4.0 | 8.0 | 0.00 | 0.00 | 0.00 | 41 | 934.5 |
| 20260901204457 | 73 | 123 | 4.0 | 14.0 | 0.00 | 0.00 | 0.00 | 42 | 934.5 |
| 20260901203956 | 73 | 322 | 5.0 | 9.0 | 0.00 | 0.00 | 0.00 | 44 | 934.7 |
| 20260901203451 | 73 | 312 | 9.0 | 10.0 | 0.00 | 0.00 | 0.00 | 44 | 934.5 |
| 20260901202946 | 72 | 243 | 9.0 | 15.0 | 0.00 | 0.00 | 0.00 | 45 | 934.5 |
| 20260901202442 | 73 | 239 | 10.0 | 14.0 | 0.00 | 0.00 | 0.00 | 45 | 934.5 |
| 20260901201938 | 72 | 277 | 4.0 | 7.0 | 0.00 | 0.00 | 0.00 | 46 | 934.5 |
| 20260901201437 | 72 | 224 | 6.0 | 18.0 | 0.00 | 0.00 | 0.00 | 47 | 934.5 |
| 20260901200932 | 72 | 205 | 8.0 | 13.0 | 0.00 | 0.00 | 0.00 | 47 | 934.5 |
| 20260901200427 | 72 | 273 | 5.0 | 8.0 | 0.00 | 0.00 | 0.00 | 49 | 934.5 |
| 20260901195926 | 71 | 247 | 8.0 | 9.0 | 0.00 | 0.00 | 0.00 | 48 | 934.5 |
| 20260901195425 | 71 | 294 | 3.0 | 10.0 | 0.00 | 0.00 | 0.00 | 49 | 934.7 |
| 20260901194920 | 71 | 213 | 12.0 | 15.0 | 0.00 | 0.00 | 0.00 | 46 | 934.7 |
| 20260901194414 | 72 | 234 | 5.0 | 11.0 | 0.00 | 0.00 | 0.00 | 48 | 934.5 |
| 20260901193911 | 72 | 297 | 6.0 | 10.0 | 0.00 | 0.00 | 0.00 | 47 | 934.9 |
| 20260901193409 | 73 | 220 | 5.0 | 10.0 | 0.00 | 0.00 | 0.00 | 47 | 934.8 |
| 20260901192904 | 73 | 245 | 7.0 | 11.0 | 0.00 | 0.00 | 0.00 | 45 | 934.8 |
| 20260901192400 | 72 | 286 | 3.0 | 7.0 | 0.00 | 0.00 | 0.00 | 45 | 934.9 |
| 20260901191856 | 72 | 254 | 5.0 | 9.0 | 0.00 | 0.00 | 0.00 | 46 | 934.9 |
| 20260901191351 | 73 | 208 | 9.0 | 16.0 | 0.00 | 0.00 | 0.00 | 46 | 935.0 |
| 20260901190847 | 74 | 289 | 3.0 | 7.0 | 0.00 | 0.00 | 0.00 | 46 | 934.8 |
| 20260901190346 | 73 | 244 | 11.0 | 15.0 | 0.00 | 0.00 | 0.00 | 47 | 935.0 |
| 20260901185844 | 72 | 302 | 7.0 | 18.0 | 0.00 | 0.00 | 0.00 | 48 | 934.8 |
| 20260901185338 | 73 | 225 | 12.0 | 15.0 | 0.00 | 0.00 | 0.00 | 46 | 934.9 |
| 20260901184834 | 72 | 195 | 9.0 | 14.0 | 0.00 | 0.00 | 0.00 | 46 | 935.2 |
| 20260901184330 | 72 | 265 | 9.0 | 13.0 | 0.00 | 0.00 | 0.00 | 46 | 935.3 |
| 20260901183825 | 73 | 349 | 3.0 | 8.0 | 0.00 | 0.00 | 0.00 | 47 | 935.2 |
| 20260901183324 | 73 | 249 | 11.0 | 14.0 | 0.00 | 0.00 | 0.00 | 45 | 935.5 |
| 20260901182821 | 74 | 223 | 9.0 | 13.0 | 0.00 | 0.00 | 0.00 | 45 | 935.5 |
| 20260901182320 | 74 | 272 | 8.0 | 11.0 | 0.00 | 0.00 | 0.00 | 44 | 935.5 |
| 20260901181815 | 74 | 208 | 9.0 | 11.0 | 0.00 | 0.00 | 0.00 | 45 | 935.3 |
| 20260901181315 | 73 | 291 | 6.0 | 9.0 | 0.00 | 0.00 | 0.00 | 48 | 935.5 |
| 20260901180808 | 72 | 243 | 6.0 | 10.0 | 0.00 | 0.00 | 0.00 | 50 | 935.5 |
| 20260901180308 | 73 | 237 | 8.0 | 11.0 | 0.00 | 0.00 | 0.00 | 49 | 935.6 |
| 20260901175807 | 72 | 296 | 3.0 | 7.0 | 0.00 | 0.00 | 0.00 | 51 | 935.3 |
| 20260901175305 | 71 | 260 | 9.0 | 13.0 | 0.00 | 0.00 | 0.00 | 51 | 935.2 |
| 20260901174756 | 72 | 185 | 6.0 | 11.0 | 0.00 | 0.00 | 0.00 | 49 | 935.3 |
| 20260901174253 | 71 | 251 | 8.0 | 9.0 | 0.00 | 0.00 | 0.00 | 52 | 935.3 |
| 20260901173748 | 70 | 220 | 6.0 | 9.0 | 0.00 | 0.00 | 0.00 | 52 | 935.5 |
| 20260901173243 | 70 | 225 | 6.0 | 9.0 | 0.00 | 0.00 | 0.00 | 52 | 935.3 |
| 20260901172740 | 71 | 208 | 6.0 | 9.0 | 0.00 | 0.00 | 0.00 | 50 | 935.5 |
| 20260901172238 | 71 | 223 | 7.0 | 9.0 | 0.00 | 0.00 | 0.00 | 51 | 935.6 |
| 20260901171737 | 70 | 200 | 7.0 | 9.0 | 0.00 | 0.00 | 0.00 | 52 | 935.5 |
| 20260901171236 | 70 | 183 | 9.0 | 11.0 | 0.00 | 0.00 | 0.00 | 53 | 935.6 |
| 20260901170735 | 70 | 213 | 3.0 | 10.0 | 0.00 | 0.00 | 0.00 | 54 | 935.3 |
| 20260901170230 | 69 | 231 | 5.0 | 7.0 | 0.00 | 0.00 | 0.00 | 55 | 935.7 |
| 20260901165729 | 69 | 222 | 6.0 | 10.0 | 0.00 | 0.00 | 0.00 | 55 | 935.5 |
| 20260901165229 | 67 | 321 | 2.0 | 3.0 | 0.00 | 0.00 | 0.00 | 57 | 935.5 |
| 20260901164725 | 68 | 173 | 3.0 | 3.0 | 0.00 | 0.00 | 0.00 | 56 | 935.7 |
| 20260901164220 | 68 | 208 | 9.0 | 10.0 | 0.00 | 0.00 | 0.00 | 56 | 935.6 |
| 20260901163715 | 67 | 248 | 0.0 | 3.0 | 0.00 | 0.00 | 0.00 | 61 | 935.5 |
| 20260901163214 | 66 | 176 | 5.0 | 7.0 | 0.00 | 0.00 | 0.00 | 60 | 935.6 |
| 20260901162710 | 64 | 180 | 5.0 | 8.0 | 0.00 | 0.00 | 0.00 | 63 | 935.6 |
| 20260901162209 | 63 | 59 | 0.0 | 0.0 | 0.00 | 0.00 | 0.00 | 67 | 935.6 |
| 20260901161709 | 62 | 357 | 0.0 | 3.0 | 0.00 | 0.00 | 0.00 | 67 | 935.2 |
| 20260901161209 | 62 | 82 | 0.0 | 0.0 | 0.00 | 0.00 | 0.00 | 70 | 935.6 |
| 20260901160705 | 62 | 76 | 0.0 | 0.0 | 0.00 | 0.00 | 0.00 | 72 | 935.6 |
| 20260901160200 | 61 | 27 | 0.0 | 0.0 | 0.00 | 0.00 | 0.00 | 71 | 935.7 |
| 20260901155659 | 61 | 259 | 0.0 | 0.0 | 0.00 | 0.00 | 0.00 | 74 | 935.7 |
| 20260901155154 | 60 | 39 | 0.0 | 0.0 | 0.00 | 0.00 | 0.00 | 74 | 935.5 |
| 20260901154649 | 60 | 29 | 0.0 | 0.0 | 0.00 | 0.00 | 0.00 | 74 | 935.6 |
| 20260901154138 | 59 | 16 | 0.0 | 0.0 | 0.00 | 0.00 | 0.00 | 74 | 935.5 |
| 20260901153634 | 59 | 41 | 0.0 | 0.0 | 0.00 | 0.00 | 0.00 | 75 | 935.5 |
| 20260901153132 | 58 | 359 | 2.0 | 3.0 | 0.00 | 0.00 | 0.00 | 76 | 935.6 |
| 20260901152628 | 58 | 355 | 0.0 | 0.0 | 0.00 | 0.00 | 0.00 | 76 | 935.5 |
| 20260901152126 | 58 | 10 | 0.0 | 2.0 | 0.00 | 0.00 | 0.00 | 76 | 935.5 |
| 20260901151622 | 59 | 41 | 0.0 | 1.0 | 0.00 | 0.00 | 0.00 | 75 | 935.6 |
| 20260901151122 | 59 | 52 | 0.0 | 0.0 | 0.00 | 0.00 | 0.00 | 75 | 935.5 |
| 20260901150621 | 60 | 63 | 0.0 | 0.0 | 0.00 | 0.00 | 0.00 | 75 | 935.5 |
| 20260901150119 | 59 | 49 | 0.0 | 0.0 | 0.00 | 0.00 | 0.00 | 77 | 935.5 |
| 20260901145613 | 58 | 53 | 0.0 | 0.0 | 0.00 | 0.00 | 0.00 | 79 | 935.6 |
| 20260901145112 | 57 | 50 | 0.0 | 0.0 | 0.00 | 0.00 | 0.00 | 81 | 935.6 |
| 20260901144608 | 57 | 68 | 0.0 | 0.0 | 0.00 | 0.00 | 0.00 | 82 | 935.3 |
| 20260901144102 | 56 | 69 | 0.0 | 0.0 | 0.00 | 0.00 | 0.00 | 82 | 935.8 |
| 20260901143558 | 56 | 61 | 0.0 | 0.0 | 0.00 | 0.00 | 0.00 | 83 | 935.6 |
| 20260901143054 | 56 | 83 | 0.0 | 0.0 | 0.00 | 0.00 | 0.00 | 83 | 935.6 |
| 20260901142549 | 55 | 50 | 0.0 | 0.0 | 0.00 | 0.00 | 0.00 | 85 | 935.7 |
| 20260901142049 | 54 | 57 | 0.0 | 0.0 | 0.00 | 0.00 | 0.00 | 85 | 935.8 |
| 20260901141544 | 53 | 49 | 0.0 | 0.0 | 0.00 | 0.00 | 0.00 | 88 | 935.7 |
| 20260901141040 | 53 | 62 | 0.0 | 0.0 | 0.00 | 0.00 | 0.00 | 89 | 935.9 |
| 20260901140538 | 52 | 39 | 0.0 | 0.0 | 0.00 | 0.00 | 0.00 | 90 | 936.0 |
| 20260901140033 | 52 | 49 | 0.0 | 0.0 | 0.00 | 0.00 | 0.00 | 92 | 936.0 |
| 20260901135532 | 52 | 58 | 0.0 | 0.0 | 0.00 | 0.00 | 0.00 | 93 | 935.8 |
| 20260901135027 | 51 | 42 | 0.0 | 0.0 | 0.00 | 0.00 | 0.00 | 93 | 935.7 |
| 20260901134524 | 51 | 44 | 0.0 | 0.0 | 0.00 | 0.00 | 0.00 | 94 | 935.5 |
| 20260901134023 | 50 | 47 | 0.0 | 0.0 | 0.00 | 0.00 | 0.00 | 95 | 934.5 |
| 20260901133522 | 49 | 60 | 0.0 | 0.0 | 0.00 | 0.00 | 0.00 | 95 | 933.4 |
| 20260901133021 | 49 | 53 | 0.0 | 0.0 | 0.00 | 0.00 | 0.00 | 95 | 933.2 |
| 20260901132520 | 49 | 91 | 0.0 | 0.0 | 0.00 | 0.00 | 0.00 | 95 | 932.7 |
| 20260901132015 | 48 | 81 | 0.0 | 0.0 | 0.00 | 0.00 | 0.00 | 96 | 932.7 |
| 20260901131515 | 48 | 61 | 0.0 | 0.0 | 0.00 | 0.00 | 0.00 | 96 | 932.7 |
| 20260901131010 | 48 | 46 | 0.0 | 0.0 | 0.00 | 0.00 | 0.00 | 96 | 932.8 |
| 20260901130505 | 48 | 57 | 0.0 | 0.0 | 0.00 | 0.00 | 0.00 | 96 | 932.8 |
| 20260901130002 | 48 | 47 | 0.0 | 0.0 | 0.00 | 0.00 | 0.00 | 96 | 933.4 |
| 20260901125457 | 48 | 39 | 0.0 | 0.0 | 0.00 | 0.00 | 0.00 | 96 | 934.2 |
| 20260901124957 | 48 | 55 | 0.0 | 0.0 | 0.00 | 0.00 | 0.00 | 95 | 934.7 |
| 20260901124452 | 49 | 36 | 0.0 | 0.0 | 0.00 | 0.00 | 0.00 | 95 | 934.5 |
| 20260901123947 | 49 | 39 | 0.0 | 0.0 | 0.00 | 0.00 | 0.00 | 95 | 934.5 |
| 20260901123442 | 50 | 43 | 0.0 | 0.0 | 0.00 | 0.00 | 0.00 | 95 | 934.5 |
| 20260901122940 | 50 | 43 | 0.0 | 0.0 | 0.00 | 0.00 | 0.00 | 95 | 934.4 |
| 20260901122439 | 50 | 72 | 0.0 | 0.0 | 0.00 | 0.00 | 0.00 | 95 | 934.7 |
| 20260901121939 | 50 | 161 | 0.0 | 0.0 | 0.00 | 0.00 | 0.00 | 95 | 934.4 |
| 20260901121434 | 50 | 49 | 0.0 | 0.0 | 0.00 | 0.00 | 0.00 | 95 | 934.5 |
| 20260901120929 | 50 | 74 | 0.0 | 0.0 | 0.00 | 0.00 | 0.00 | 95 | 934.5 |
| 20260901120428 | 50 | 72 | 0.0 | 0.0 | 0.00 | 0.00 | 0.00 | 95 | 934.4 |
| 20260901115924 | 50 | 67 | 0.0 | 0.0 | 0.00 | 0.00 | 0.00 | 95 | 934.3 |
| 20260901115424 | 50 | 54 | 0.0 | 0.0 | 0.00 | 0.00 | 0.00 | 95 | 934.5 |
| 20260901114922 | 51 | 45 | 0.0 | 0.0 | 0.00 | 0.00 | 0.00 | 95 | 934.2 |
| 20260901114417 | 51 | 39 | 0.0 | 0.0 | 0.00 | 0.00 | 0.00 | 95 | 934.4 |
| 20260901113915 | 51 | 54 | 0.0 | 0.0 | 0.00 | 0.00 | 0.00 | 95 | 934.8 |
| 20260901113414 | 51 | 35 | 0.0 | 0.0 | 0.00 | 0.00 | 0.00 | 95 | 934.4 |
| 20260901112910 | 51 | 36 | 0.0 | 0.0 | 0.00 | 0.00 | 0.00 | 94 | 934.5 |
| 20260901112405 | 52 | 43 | 0.0 | 0.0 | 0.00 | 0.00 | 0.00 | 94 | 934.3 |
| 20260901111859 | 52 | 60 | 0.0 | 0.0 | 0.00 | 0.00 | 0.00 | 94 | 934.3 |
| 20260901111358 | 52 | 42 | 0.0 | 0.0 | 0.00 | 0.00 | 0.00 | 94 | 934.5 |
| 20260901110857 | 52 | 52 | 0.0 | 0.0 | 0.00 | 0.00 | 0.00 | 94 | 934.7 |
| 20260901110353 | 52 | 69 | 0.0 | 0.0 | 0.00 | 0.00 | 0.00 | 94 | 934.7 |
| 20260901105848 | 52 | 67 | 0.0 | 0.0 | 0.00 | 0.00 | 0.00 | 94 | 934.4 |
| 20260901105344 | 53 | 60 | 0.0 | 0.0 | 0.00 | 0.00 | 0.00 | 94 | 934.7 |
| 20260901104840 | 53 | 45 | 0.0 | 0.0 | 0.00 | 0.00 | 0.00 | 94 | 934.5 |
| 20260901104335 | 52 | 34 | 0.0 | 0.0 | 0.00 | 0.00 | 0.00 | 93 | 934.5 |
| 20260901103831 | 53 | 33 | 0.0 | 0.0 | 0.00 | 0.00 | 0.00 | 93 | 934.5 |
| 20260901103330 | 53 | 42 | 0.0 | 0.0 | 0.00 | 0.00 | 0.00 | 93 | 934.5 |
| 20260901102826 | 53 | 44 | 0.0 | 0.0 | 0.00 | 0.00 | 0.00 | 93 | 934.5 |
| 20260901102320 | 53 | 57 | 0.0 | 0.0 | 0.00 | 0.00 | 0.00 | 93 | 934.4 |
| 20260901101816 | 53 | 49 | 0.0 | 0.0 | 0.00 | 0.00 | 0.00 | 93 | 934.5 |
| 20260901101315 | 53 | 52 | 0.0 | 0.0 | 0.00 | 0.00 | 0.00 | 93 | 934.5 |
| 20260901100814 | 53 | 54 | 0.0 | 0.0 | 0.00 | 0.00 | 0.00 | 93 | 934.3 |
| 20260901100309 | 53 | 49 | 0.0 | 0.0 | 0.00 | 0.00 | 0.00 | 93 | 934.3 |
| 20260901095808 | 53 | 39 | 0.0 | 0.0 | 0.00 | 0.00 | 0.00 | 93 | 934.4 |
| 20260901095306 | 54 | 40 | 0.0 | 0.0 | 0.00 | 0.00 | 0.00 | 93 | 934.4 |
| 20260901094800 | 54 | 41 | 0.0 | 0.0 | 0.00 | 0.00 | 0.00 | 93 | 934.4 |
| 20260901094255 | 54 | 44 | 0.0 | 0.0 | 0.00 | 0.00 | 0.00 | 93 | 934.3 |
| 20260901093750 | 54 | 33 | 0.0 | 0.0 | 0.00 | 0.00 | 0.00 | 93 | 934.5 |
| 20260901093249 | 54 | 71 | 0.0 | 0.0 | 0.00 | 0.00 | 0.00 | 93 | 934.3 |
| 20260901092745 | 54 | 43 | 0.0 | 0.0 | 0.00 | 0.00 | 0.00 | 93 | 934.4 |
| 20260901092241 | 54 | 68 | 0.0 | 0.0 | 0.00 | 0.00 | 0.00 | 93 | 934.3 |
| 20260901091736 | 54 | 37 | 0.0 | 0.0 | 0.00 | 0.00 | 0.00 | 93 | 934.5 |
| 20260901091232 | 54 | 42 | 0.0 | 0.0 | 0.00 | 0.00 | 0.00 | 93 | 934.5 |
| 20260901090726 | 54 | 48 | 0.0 | 0.0 | 0.00 | 0.00 | 0.00 | 93 | 934.7 |
| 20260901090227 | 54 | 63 | 0.0 | 0.0 | 0.00 | 0.00 | 0.00 | 93 | 934.5 |
| 20260901085723 | 54 | 43 | 0.0 | 0.0 | 0.00 | 0.00 | 0.00 | 93 | 934.4 |
| 20260901085218 | 54 | 42 | 0.0 | 0.0 | 0.00 | 0.00 | 0.00 | 93 | 934.5 |
| 20260901084714 | 54 | 42 | 0.0 | 0.0 | 0.00 | 0.00 | 0.00 | 93 | 934.5 |
| 20260901084210 | 54 | 42 | 0.0 | 0.0 | 0.00 | 0.00 | 0.00 | 93 | 934.4 |
| 20260901083705 | 54 | 38 | 0.0 | 0.0 | 0.00 | 0.00 | 0.00 | 93 | 934.7 |
| 20260901083204 | 54 | 42 | 0.0 | 0.0 | 0.00 | 0.00 | 0.00 | 94 | 934.5 |
| 20260901082703 | 54 | 79 | 0.0 | 0.0 | 0.00 | 0.00 | 0.00 | 94 | 934.5 |
| 20260901082159 | 54 | 103 | 0.0 | 0.0 | 0.00 | 0.00 | 0.00 | 94 | 934.5 |
| 20260901081655 | 54 | 39 | 0.0 | 0.0 | 0.00 | 0.00 | 0.00 | 94 | 935.0 |
| 20260901081154 | 54 | 54 | 0.0 | 0.0 | 0.00 | 0.00 | 0.00 | 94 | 934.5 |
| 20260901080649 | 54 | 22 | 0.0 | 0.0 | 0.00 | 0.00 | 0.00 | 94 | 934.9 |
| 20260901080148 | 54 | 39 | 0.0 | 0.0 | 0.00 | 0.00 | 0.00 | 95 | 934.8 |
| 20260901075643 | 54 | 41 | 0.0 | 0.0 | 0.00 | 0.00 | 0.00 | 95 | 934.8 |
| 20260901075142 | 54 | 40 | 0.0 | 0.0 | 0.00 | 0.00 | 0.00 | 95 | 934.8 |
| 20260901074642 | 54 | 43 | 0.0 | 0.0 | 0.00 | 0.00 | 0.00 | 95 | 935.0 |
| 20260901074137 | 54 | 30 | 0.0 | 0.0 | 0.00 | 0.00 | 0.00 | 95 | 934.8 |
| 20260901073633 | 54 | 23 | 0.0 | 0.0 | 0.00 | 0.00 | 0.00 | 95 | 934.8 |
| 20260901073129 | 55 | 34 | 0.0 | 0.0 | 0.00 | 0.00 | 0.00 | 95 | 934.8 |
| 20260901072624 | 55 | 35 | 0.0 | 0.0 | 0.00 | 0.00 | 0.00 | 95 | 935.0 |
| 20260901072119 | 54 | 34 | 0.0 | 0.0 | 0.00 | 0.00 | 0.00 | 95 | 934.9 |
| 20260901071619 | 54 | 32 | 0.0 | 0.0 | 0.00 | 0.00 | 0.00 | 95 | 935.1 |
| 20260901071119 | 54 | 34 | 0.0 | 0.0 | 0.00 | 0.00 | 0.00 | 95 | 935.1 |
| 20260901070613 | 54 | 61 | 0.0 | 0.0 | 0.00 | 0.00 | 0.00 | 95 | 935.0 |
| 20260901070109 | 55 | 42 | 0.0 | 0.0 | 0.00 | 0.00 | 0.00 | 95 | 934.9 |
| 20260901065603 | 54 | 43 | 0.0 | 0.0 | 0.00 | 0.00 | 0.00 | 95 | 934.9 |
| 20260901065102 | 55 | 72 | 0.0 | 0.0 | 0.00 | 0.00 | 0.00 | 95 | 935.1 |
| 20260901064600 | 54 | 32 | 0.0 | 0.0 | 0.00 | 0.00 | 0.00 | 95 | 934.8 |
| 20260901064056 | 54 | 36 | 0.0 | 0.0 | 0.00 | 0.00 | 0.00 | 94 | 934.9 |
| 20260901063552 | 54 | 40 | 0.0 | 0.0 | 0.00 | 0.00 | 0.00 | 94 | 934.8 |
| 20260901063048 | 54 | 48 | 0.0 | 0.0 | 0.00 | 0.00 | 0.00 | 94 | 934.8 |
| 20260901062544 | 54 | 41 | 0.0 | 0.0 | 0.00 | 0.00 | 0.00 | 94 | 934.8 |
| 20260901062039 | 55 | 55 | 0.0 | 0.0 | 0.00 | 0.00 | 0.00 | 94 | 934.9 |
| 20260901061536 | 54 | 33 | 0.0 | 0.0 | 0.00 | 0.00 | 0.00 | 94 | 935.0 |
| 20260901061031 | 55 | 23 | 0.0 | 0.0 | 0.00 | 0.00 | 0.00 | 94 | 935.0 |
| 20260901060530 | 55 | 32 | 0.0 | 0.0 | 0.00 | 0.00 | 0.00 | 94 | 934.9 |
| 20260901060026 | 55 | 77 | 0.0 | 0.0 | 0.00 | 0.14 | 0.14 | 94 | 934.9 |
| 20260901055521 | 55 | 57 | 0.0 | 0.0 | 0.00 | 0.14 | 0.14 | 94 | 935.1 |
| 20260901055018 | 55 | 46 | 0.0 | 0.0 | 0.00 | 0.14 | 0.14 | 94 | 935.3 |
| 20260901054515 | 55 | 52 | 0.0 | 0.0 | 0.00 | 0.14 | 0.14 | 94 | 935.1 |
| 20260901054010 | 55 | 40 | 0.0 | 0.0 | 0.00 | 0.14 | 0.14 | 94 | 935.3 |
| 20260901053506 | 55 | 61 | 0.0 | 0.0 | 0.00 | 0.14 | 0.14 | 94 | 935.5 |
| 20260901053001 | 56 | 92 | 0.0 | 0.0 | 0.00 | 0.14 | 0.14 | 93 | 935.2 |
| 20260901052457 | 55 | 54 | 0.0 | 0.0 | 0.00 | 0.14 | 0.14 | 93 | 935.7 |
| 20260901051955 | 56 | 80 | 0.0 | 0.0 | 0.00 | 0.14 | 0.14 | 93 | 935.6 |
| 20260901051452 | 56 | 127 | 0.0 | 0.0 | 0.00 | 0.14 | 0.14 | 93 | 935.3 |
| 20260901050950 | 56 | 82 | 0.0 | 0.0 | 0.00 | 0.14 | 0.14 | 93 | 935.7 |
| 20260901050446 | 56 | 45 | 0.0 | 0.0 | 0.00 | 0.14 | 0.14 | 93 | 935.3 |
| 20260901045946 | 56 | 44 | 0.0 | 0.0 | 0.00 | 0.14 | 0.14 | 93 | 935.6 |
| 20260901045441 | 56 | 32 | 0.0 | 0.0 | 0.00 | 0.14 | 0.14 | 92 | 935.6 |
| 20260901044936 | 57 | 51 | 0.0 | 0.0 | 0.00 | 0.14 | 0.14 | 92 | 936.0 |
| 20260901044432 | 56 | 45 | 0.0 | 0.0 | 0.00 | 0.14 | 0.14 | 92 | 935.8 |
| 20260901043928 | 57 | 75 | 0.0 | 0.0 | 0.00 | 0.14 | 0.14 | 92 | 936.1 |
| 20260901043424 | 57 | 65 | 0.0 | 0.0 | 0.00 | 0.14 | 0.14 | 92 | 936.0 |
| 20260901042918 | 56 | 42 | 0.0 | 0.0 | 0.00 | 0.14 | 0.14 | 92 | 936.4 |
| 20260901042412 | 56 | 42 | 0.0 | 0.0 | 0.00 | 0.14 | 0.14 | 92 | 936.6 |
| 20260901041908 | 56 | 42 | 0.0 | 0.0 | 0.00 | 0.14 | 0.14 | 91 | 936.6 |
| 20260901041403 | 56 | 78 | 0.0 | 0.0 | 0.00 | 0.14 | 0.14 | 91 | 936.6 |
| 20260901040902 | 56 | 38 | 0.0 | 0.0 | 0.00 | 0.14 | 0.14 | 91 | 936.5 |
| 20260901040402 | 56 | 55 | 0.0 | 0.0 | 0.00 | 0.14 | 0.14 | 91 | 936.9 |